Tracking 30101 objects as of 14-Dec-2024
HD Live streaming from Space Station
objects crossing your sky now

STARLINK-6261

Track STARLINK-6261 now!
10-day predictions
STARLINK-6261 is classified as:


NORAD ID: 56417
Int'l Code: 2023-061AV
Perigee: 565.4 km
Apogee: 567.1 km
Inclination: 43.0 °
Period: 95.8 minutes
Semi major axis: 6937 km
RCS: Unknown
Launch date: May 4, 2023
Source: United States (US)
Launch site: AIR FORCE EASTERN TEST RANGE (AFETR)
Your satellite tracking list
Your tracking list is empty




NASA's NSSDC Master Catalog

Two Line Element Set (TLE):
1 56417U 23061AV  24348.74477665  .00000822  00000-0  75920-4 0  9991
2 56417  43.0030 114.5357 0001183 265.9219  94.1488 15.02523029 89367
Source of the keplerian elements: AFSPC